Regional Weather Roundup
Issued by NWS Albany, NY

Home | Current Version | Previous Version | Graphics & Text | Print | Product List | Glossary Off
Versions: 1 2 3 4 5 6 7 8 9 10 11 12 13 14 15 16 17 18 19 20 21 22 23 24 25 26 27 28 29 30 31 32 33 34 35 36 37 38 39 40 41 42 43 44 45 46 47 48 49 50

000
ASUS41 KALY 030510
RWRALY

NEW YORK STATE HOURLY WEATHER ROUNDUP
NATIONAL WEATHER SERVICE ALBANY NY
100 AM EDT SUN MAY 03 2015

NOTE: "FAIR" INDICATES FEW OR NO CLOUDS BELOW 12,000 FEET WITH NO
SIGNIFICANT WEATHER AND/OR NO OBSTRUCTIONS TO VISIBILITY.

NYZ032-033-038>043-046>054-057>066-NYZ062>081-030600-
EAST


CITY           SKY/WX    TMP DP  RH WIND       PRES   REMARKS
ALBANY         PTCLDY    57  36  45 CALM      29.98R
GLENS FALLS    CLEAR     51  38  60 CALM      29.96R
POUGHKEEPSIE   PTCLDY    50  40  68 SE6       30.01R
NEWBURGH       CLEAR     52  41  66 VRB6      30.03R
MONTGOMERY     CLEAR     49  42  77 CALM      30.01R
WHITE PLAINS   PTCLDY    46  39  76 CALM      30.03S
ISLIP          PTCLDY    46  40  79 CALM      30.04S
NEW YORK CITY  MOCLDY    51  38  60 S7        30.05S
CENTRAL PARK   MOCLDY    52  34  50 SW3       30.07S
$$

NYZ005>009-017-018-044>046-055-056-030600-
CENTRAL


CITY           SKY/WX    TMP DP  RH WIND       PRES   REMARKS
FULTON         CLEAR     51  35  54 CALM      30.00R
SYRACUSE       PTCLDY    53  39  59 CALM      30.00R
ROME           CLEAR     46  38  73 CALM      30.02S
ELMIRA         CLEAR     44  37  76 SW3       30.04R
BINGHAMTON     CLEAR     57  33  40 NW5       30.02R
MONTICELLO     CLEAR     48  30  49 CALM      30.03R
$$

NYZ026>034-041>043-030600-
NORTH


CITY           SKY/WX    TMP DP  RH WIND       PRES   REMARKS
WATERTOWN      CLEAR     51  35  54 S7        29.98R
FORT DRUM      NOT AVBL
MASSENA        PTCLDY    54  37  52 SW7       29.93S
SARANAC LAKE   CLEAR     34  31  88 CALM      29.97S
PLATTSBURGH    CLEAR     58  37  45 VRB3      29.93R
$$

NYZ001>004-010>016-019>021-030600-
WEST


CITY           SKY/WX    TMP DP  RH WIND       PRES   REMARKS
NIAGARA FALLS  PTCLDY    50  35  56 CALM      30.00S
BUFFALO        PTCLDY    48  37  65 S7        30.01F
DUNKIRK        CLEAR     50  37  61 S5        30.02S
JAMESTOWN      CLEAR     54  30  40 CALM      30.05S
WELLSVILLE     CLEAR     56  26  31 SW3       30.06S
ROCHESTER      CLEAR     55  39  54 SW6       30.01S
PENN YAN       CLEAR     50  39  66 SW6       30.02S
$$

             KEY
       WCI = WIND CHILL INDEX
       VSB = VISIBILITY
       HX  = HEAT INDEX
$$



USA.gov is the U.S. government's official web portal to all federal, state and local government web resources and services.